| time (UTC) | temp F | wind direction | speed knots | gust knots | rain 1hr in | rain 24hr in | rain mn in | humidity % | barometer mb |
| 20260906023025 | 60 | 0.0 | 0.0 | 0.00 | 0.05 | 0.00 | 99 | 1024.1 | |
| 20260906022021 | 60 | 135 | 0.0 | 0.9 | 0.00 | 0.05 | 0.00 | 99 | 1024.0 |
| 20260906021017 | 60 | 0.0 | 0.0 | 0.00 | 0.05 | 0.00 | 99 | 1024.0 | |
| 20260906020028 | 60 | 0.0 | 0.0 | 0.00 | 0.05 | 0.00 | 99 | 1023.9 | |
| 20260906015024 | 60 | 0.0 | 0.0 | 0.00 | 0.05 | 0.00 | 99 | 1023.9 | |
| 20260906014019 | 60 | 180 | 0.0 | 0.0 | 0.00 | 0.05 | 0.00 | 99 | 1023.8 |
| 20260906013015 | 60 | 180 | 0.0 | 1.7 | 0.00 | 0.05 | 0.00 | 99 | 1023.8 |
| 20260906012026 | 60 | 0.0 | 0.0 | 0.00 | 0.05 | 0.00 | 99 | 1023.6 | |
| 20260906011022 | 60 | 0.0 | 0.0 | 0.00 | 0.05 | 0.00 | 99 | 1023.5 | |
| 20260906010017 | 60 | 0.0 | 0.0 | 0.00 | 0.05 | 0.00 | 99 | 1023.7 | |
| 20260906005028 | 60 | 0.0 | 0.0 | 0.00 | 0.05 | 0.00 | 99 | 1023.7 | |
| 20260906004029 | 60 | 0.0 | 0.0 | 0.00 | 0.05 | 0.00 | 99 | 1023.6 | |
| 20260906003025 | 60 | 0.0 | 0.0 | 0.00 | 0.05 | 0.00 | 99 | 1023.5 | |
| 20260906002021 | 60 | 0.0 | 0.0 | 0.00 | 0.05 | 0.00 | 99 | 1023.5 | |
| 20260906001016 | 60 | 0.0 | 0.0 | 0.00 | 0.05 | 0.00 | 99 | 1023.4 | |
| 20260906000028 | 60 | 45 | 0.0 | 0.9 | 0.00 | 0.05 | 0.00 | 99 | 1023.4 |
| 20260905235023 | 61 | 315 | 0.0 | 1.7 | 0.00 | 0.05 | 0.00 | 99 | 1023.5 |
| 20260905234016 | 61 | 315 | 0.0 | 2.6 | 0.00 | 0.05 | 0.00 | 99 | 1023.3 |
| 20260905233027 | 61 | 0.0 | 0.0 | 0.00 | 0.05 | 0.00 | 99 | 1023.3 | |
| 20260905232022 | 60 | 0.0 | 0.0 | 0.00 | 0.05 | 0.00 | 99 | 1023.2 | |
| 20260905231018 | 60 | 0.0 | 0.0 | 0.00 | 0.05 | 0.00 | 99 | 1023.3 | |
| 20260905230029 | 60 | 135 | 0.0 | 0.9 | 0.00 | 0.05 | 0.00 | 99 | 1023.2 |
| 20260905225025 | 60 | 0.0 | 0.0 | 0.00 | 0.05 | 0.00 | 99 | 1023.2 | |
| 20260905224021 | 60 | 225 | 0.0 | 0.9 | 0.00 | 0.05 | 0.00 | 99 | 1023.3 |
| 20260905223017 | 60 | 0.0 | 0.0 | 0.00 | 0.05 | 0.00 | 99 | 1023.2 | |
| 20260905222028 | 60 | 0.0 | 0.0 | 0.00 | 0.05 | 0.00 | 99 | 1023.2 | |
| 20260905221022 | 59 | 0.0 | 0.0 | 0.00 | 0.05 | 0.00 | 99 | 1023.1 | |
| 20260905220018 | 59 | 135 | 0.0 | 0.9 | 0.00 | 0.05 | 0.00 | 99 | 1023.0 |
| 20260905215029 | 60 | 0.0 | 0.0 | 0.00 | 0.05 | 0.05 | 99 | 1023.0 | |
| 20260905214028 | 60 | 0.0 | 0.0 | 0.00 | 0.05 | 0.05 | 99 | 1022.9 | |
| 20260905213024 | 60 | 180 | 0.0 | 0.9 | 0.00 | 0.05 | 0.05 | 99 | 1022.9 |
| 20260905212020 | 60 | 0.0 | 0.0 | 0.00 | 0.05 | 0.05 | 99 | 1022.9 | |
| 20260905211015 | 61 | 135 | 0.0 | 0.9 | 0.00 | 0.05 | 0.05 | 99 | 1022.8 |
| 20260905210026 | 61 | 0.0 | 0.0 | 0.00 | 0.05 | 0.05 | 99 | 1022.7 | |
| 20260905205022 | 61 | 0.0 | 0.0 | 0.00 | 0.05 | 0.05 | 99 | 1022.8 | |
| 20260905204034 | 61 | 0.0 | 0.0 | 0.00 | 0.05 | 0.05 | 99 | 1022.6 | |
| 20260905203030 | 61 | 0.0 | 0.0 | 0.00 | 0.05 | 0.05 | 99 | 1022.5 | |
| 20260905202026 | 61 | 0.0 | 0.0 | 0.00 | 0.05 | 0.05 | 99 | 1022.4 | |
| 20260905201022 | 61 | 0.0 | 0.0 | 0.00 | 0.05 | 0.05 | 99 | 1022.5 | |
| 20260905200018 | 61 | 0.0 | 0.0 | 0.00 | 0.05 | 0.05 | 98 | 1022.3 | |
| 20260905195028 | 62 | 0.0 | 0.0 | 0.00 | 0.05 | 0.05 | 98 | 1022.2 | |
| 20260905194024 | 62 | 0.0 | 0.0 | 0.00 | 0.05 | 0.05 | 98 | 1022.1 | |
| 20260905193020 | 62 | 0.0 | 0.0 | 0.00 | 0.05 | 0.05 | 97 | 1021.9 | |
| 20260905192016 | 62 | 0.0 | 0.0 | 0.00 | 0.05 | 0.05 | 97 | 1021.7 | |
| 20260905191027 | 62 | 0.0 | 0.0 | 0.00 | 0.05 | 0.05 | 96 | 1021.7 | |
| 20260905190023 | 63 | 0.0 | 0.0 | 0.00 | 0.05 | 0.05 | 96 | 1021.7 | |
| 20260905185019 | 63 | 0.0 | 0.0 | 0.00 | 0.05 | 0.05 | 93 | 1021.4 | |
| 20260905184029 | 63 | 0.0 | 0.0 | 0.00 | 0.05 | 0.05 | 92 | 1021.3 | |
| 20260905183025 | 64 | 0.0 | 0.0 | 0.00 | 0.05 | 0.05 | 90 | 1021.3 | |
| 20260905182021 | 64 | 0.0 | 0.0 | 0.00 | 0.05 | 0.05 | 89 | 1021.1 | |
| 20260905181017 | 65 | 0.0 | 0.0 | 0.00 | 0.05 | 0.05 | 88 | 1021.1 | |
| 20260905180028 | 65 | 0.0 | 0.0 | 0.00 | 0.05 | 0.05 | 86 | 1020.9 | |
| 20260905175024 | 66 | 0.0 | 0.0 | 0.00 | 0.05 | 0.05 | 84 | 1020.6 | |
| 20260905174019 | 66 | 0.0 | 0.0 | 0.00 | 0.05 | 0.05 | 83 | 1020.5 | |
| 20260905173026 | 68 | 0.0 | 0.0 | 0.00 | 0.05 | 0.05 | 81 | 1020.4 | |
| 20260905172022 | 69 | 0.0 | 0.0 | 0.00 | 0.05 | 0.05 | 77 | 1020.3 | |
| 20260905171018 | 71 | 0.0 | 0.0 | 0.00 | 0.05 | 0.05 | 73 | 1020.2 | |
| 20260905170029 | 75 | 0.0 | 0.0 | 0.00 | 0.05 | 0.05 | 65 | 1020.1 | |
| 20260905165024 | 78 | 0.0 | 0.0 | 0.00 | 0.05 | 0.05 | 63 | 1019.9 | |
| 20260905164021 | 81 | 0.0 | 0.0 | 0.00 | 0.05 | 0.05 | 60 | 1019.9 | |
| 20260905163016 | 79 | 0.0 | 0.0 | 0.00 | 0.05 | 0.05 | 61 | 1019.8 | |
| 20260905162027 | 77 | 135 | 0.0 | 0.9 | 0.00 | 0.05 | 0.05 | 63 | 1020.0 |
| 20260905161023 | 77 | 135 | 0.0 | 0.9 | 0.00 | 0.05 | 0.05 | 64 | 1019.9 |
| 20260905160018 | 77 | 90 | 0.0 | 1.7 | 0.00 | 0.05 | 0.05 | 65 | 1019.8 |
| 20260905155029 | 76 | 135 | 0.0 | 1.7 | 0.00 | 0.05 | 0.05 | 68 | 1019.8 |
| 20260905154025 | 73 | 159 | 0.0 | 1.7 | 0.00 | 0.05 | 0.05 | 76 | 1019.8 |
| 20260905153021 | 70 | 146 | 0.9 | 2.6 | 0.00 | 0.05 | 0.05 | 78 | 1019.7 |
| 20260905152017 | 70 | 142 | 0.0 | 1.7 | 0.00 | 0.05 | 0.05 | 76 | 1019.8 |
| 20260905151028 | 71 | 135 | 0.0 | 0.9 | 0.00 | 0.05 | 0.05 | 74 | 1019.9 |
| 20260905150023 | 71 | 135 | 0.0 | 1.7 | 0.00 | 0.05 | 0.05 | 73 | 1020.2 |
| 20260905145019 | 72 | 90 | 0.0 | 0.9 | 0.00 | 0.05 | 0.05 | 70 | 1020.0 |
| 20260905144015 | 74 | 229 | 0.9 | 1.7 | 0.00 | 0.05 | 0.05 | 65 | 1019.9 |
| 20260905143026 | 73 | 145 | 0.9 | 1.7 | 0.00 | 0.05 | 0.05 | 71 | 1020.0 |
| 20260905142022 | 70 | 167 | 0.9 | 2.6 | 0.00 | 0.05 | 0.05 | 79 | 1020.1 |
| 20260905141018 | 69 | 270 | 0.0 | 0.9 | 0.00 | 0.05 | 0.05 | 81 | 1020.4 |
| 20260905140029 | 68 | 0.0 | 0.0 | 0.00 | 0.05 | 0.05 | 82 | 1020.2 | |
| 20260905135025 | 67 | 0.0 | 0.0 | 0.00 | 0.05 | 0.05 | 83 | 1020.2 | |
| 20260905134021 | 67 | 0.0 | 0.0 | 0.01 | 0.05 | 0.05 | 84 | 1020.2 | |
| 20260905133017 | 66 | 0.0 | 0.0 | 0.03 | 0.05 | 0.05 | 86 | 1020.3 | |
| 20260905132027 | 66 | 0.0 | 0.0 | 0.04 | 0.05 | 0.05 | 88 | 1020.2 | |
| 20260905131024 | 66 | 124 | 0.9 | 2.6 | 0.05 | 0.05 | 0.05 | 87 | 1020.2 |
| 20260905130019 | 65 | 196 | 0.9 | 4.3 | 0.05 | 0.05 | 0.05 | 85 | 1020.7 |
| 20260905125015 | 66 | 154 | 2.6 | 4.3 | 0.05 | 0.05 | 0.05 | 84 | 1020.4 |
| 20260905124026 | 67 | 180 | 0.0 | 2.6 | 0.04 | 0.04 | 0.04 | 79 | 1020.8 |
| 20260905123022 | 69 | 117 | 0.0 | 1.7 | 0.02 | 0.02 | 0.02 | 70 | 1021.1 |
| 20260905122020 | 71 | 346 | 4.3 | 8.7 | 0.01 | 0.01 | 0.01 | 61 | 1021.2 |
| 20260905121016 | 74 | 27 | 1.7 | 5.2 | 0.00 | 0.00 | 0.00 | 51 | 1020.9 |
| 20260905120027 | 74 | 35 | 0.9 | 2.6 | 0.00 | 0.00 | 0.00 | 50 | 1020.7 |
| 20260905115023 | 75 | 74 | 0.0 | 1.7 | 0.00 | 0.00 | 0.00 | 50 | 1020.4 |
| 20260905114018 | 76 | 135 | 0.0 | 1.7 | 0.00 | 0.00 | 0.00 | 49 | 1020.2 |
| 20260905113029 | 76 | 103 | 0.9 | 2.6 | 0.00 | 0.00 | 0.00 | 48 | 1020.2 |
| 20260905112025 | 76 | 90 | 0.9 | 2.6 | 0.00 | 0.00 | 0.00 | 49 | 1020.2 |
| 20260905111021 | 76 | 76 | 1.7 | 2.6 | 0.00 | 0.00 | 0.00 | 49 | 1020.1 |
| 20260905110017 | 76 | 81 | 0.9 | 2.6 | 0.00 | 0.00 | 0.00 | 50 | 1020.1 |
| 20260905105028 | 75 | 38 | 1.7 | 3.5 | 0.00 | 0.00 | 0.00 | 50 | 1020.0 |
| 20260905104024 | 75 | 120 | 1.7 | 4.3 | 0.00 | 0.00 | 0.00 | 49 | 1020.2 |
| 20260905103019 | 76 | 41 | 2.6 | 6.1 | 0.00 | 0.00 | 0.00 | 47 | 1020.0 |
| 20260905102015 | 77 | 71 | 1.7 | 3.5 | 0.00 | 0.00 | 0.00 | 47 | 1020.1 |
| 20260905101026 | 77 | 139 | 2.6 | 4.3 | 0.00 | 0.00 | 0.00 | 47 | 1020.0 |
| 20260905100022 | 77 | 124 | 2.6 | 5.2 | 0.00 | 0.00 | 0.00 | 46 | 1020.0 |
| 20260905095018 | 77 | 114 | 2.6 | 6.1 | 0.00 | 0.00 | 0.00 | 46 | 1019.9 |
| 20260905094028 | 76 | 119 | 3.5 | 7.0 | 0.00 | 0.00 | 0.00 | 46 | 1019.7 |
| 20260905093024 | 74 | 135 | 5.2 | 8.7 | 0.00 | 0.00 | 0.00 | 49 | 1019.8 |
| 20260905092021 | 75 | 120 | 3.5 | 6.1 | 0.00 | 0.00 | 0.00 | 50 | 1019.9 |
| 20260905091016 | 75 | 135 | 2.6 | 5.2 | 0.00 | 0.00 | 0.00 | 51 | 1019.8 |
| 20260905090027 | 74 | 138 | 4.3 | 7.0 | 0.00 | 0.00 | 0.00 | 52 | 1019.7 |
| 20260905085023 | 74 | 114 | 3.5 | 5.2 | 0.00 | 0.00 | 0.00 | 52 | 1019.5 |
| 20260905084018 | 75 | 124 | 2.6 | 5.2 | 0.00 | 0.00 | 0.00 | 54 | 1019.4 |
| 20260905083029 | 75 | 152 | 3.5 | 8.7 | 0.00 | 0.00 | 0.00 | 58 | 1019.1 |
| 20260905082025 | 75 | 120 | 2.6 | 5.2 | 0.00 | 0.00 | 0.00 | 59 | 1018.9 |
| 20260905081021 | 75 | 97 | 2.6 | 5.2 | 0.00 | 0.00 | 0.00 | 60 | 1018.7 |
| 20260905080017 | 76 | 122 | 3.5 | 8.7 | 0.00 | 0.00 | 0.00 | 60 | 1018.4 |
| 20260905075028 | 77 | 208 | 2.6 | 9.6 | 0.00 | 0.00 | 0.00 | 60 | 1018.1 |
| 20260905074023 | 78 | 73 | 2.6 | 5.2 | 0.00 | 0.00 | 0.00 | 62 | 1017.8 |
| 20260905073019 | 75 | 45 | 2.6 | 5.2 | 0.00 | 0.00 | 0.00 | 69 | 1017.6 |
| 20260905072015 | 73 | 135 | 0.0 | 1.7 | 0.00 | 0.00 | 0.00 | 71 | 1016.9 |
| 20260905071026 | 73 | 270 | 0.0 | 1.7 | 0.00 | 0.00 | 0.00 | 71 | 1016.6 |
| 20260905070022 | 72 | 0.0 | 0.0 | 0.00 | 0.00 | 0.00 | 72 | 1016.4 | |
| 20260905065018 | 71 | 90 | 0.0 | 0.9 | 0.00 | 0.00 | 0.00 | 75 | 1016.4 |
| 20260905064029 | 71 | 54 | 0.9 | 2.6 | 0.00 | 0.00 | 0.00 | 74 | 1016.3 |
| 20260905063025 | 72 | 71 | 0.0 | 2.6 | 0.00 | 0.00 | 0.00 | 73 | 1016.0 |
| 20260905062021 | 71 | 45 | 0.9 | 2.6 | 0.00 | 0.00 | 0.00 | 82 | 1016.0 |
| 20260905061020 | 68 | 92 | 0.9 | 2.6 | 0.00 | 0.00 | 0.00 | 97 | 1015.9 |
| 20260905060015 | 65 | 0.0 | 0.0 | 0.00 | 0.00 | 0.00 | 99 | 1015.7 | |
| 20260905055027 | 64 | 0.0 | 0.0 | 0.00 | 0.00 | 0.00 | 99 | 1015.5 | |
| 20260905054022 | 63 | 135 | 0.0 | 0.0 | 0.00 | 0.00 | 0.00 | 99 | 1015.5 |
| 20260905053018 | 61 | 0.0 | 0.0 | 0.00 | 0.00 | 0.00 | 99 | 1015.4 | |
| 20260905052029 | 60 | 0.0 | 0.0 | 0.00 | 0.00 | 0.00 | 99 | 1015.3 | |
| 20260905051023 | 60 | 0.0 | 0.0 | 0.00 | 0.00 | 0.00 | 99 | 1015.2 | |
| 20260905050020 | 61 | 0.0 | 0.0 | 0.00 | 0.00 | 0.00 | 99 | 1015.2 | |
| 20260905045015 | 60 | 0.0 | 0.0 | 0.00 | 0.00 | 0.00 | 99 | 1015.0 | |
| 20260905044026 | 60 | 0.0 | 0.0 | 0.00 | 0.00 | 0.00 | 99 | 1014.8 | |
| 20260905043022 | 60 | 0.0 | 0.0 | 0.00 | 0.00 | 0.00 | 99 | 1014.6 | |
| 20260905042018 | 60 | 0.0 | 0.0 | 0.00 | 0.00 | 0.00 | 99 | 1014.4 | |
| 20260905041029 | 60 | 0.0 | 0.0 | 0.00 | 0.00 | 0.00 | 99 | 1014.4 | |
| 20260905040024 | 60 | 0.0 | 0.0 | 0.00 | 0.00 | 0.00 | 99 | 1014.3 | |
| 20260905035020 | 60 | 0.0 | 0.0 | 0.00 | 0.00 | 0.00 | 99 | 1014.3 | |
| 20260905034016 | 60 | 0.0 | 0.0 | 0.00 | 0.00 | 0.00 | 99 | 1014.3 | |
| 20260905033027 | 60 | 0.0 | 0.0 | 0.00 | 0.00 | 0.00 | 99 | 1014.1 | |
| 20260905032022 | 60 | 0.0 | 0.0 | 0.00 | 0.00 | 0.00 | 99 | 1013.9 | |
| 20260905031018 | 60 | 0.0 | 0.0 | 0.00 | 0.00 | 0.00 | 99 | 1013.9 | |
| 20260905030029 | 60 | 0.0 | 0.0 | 0.00 | 0.00 | 0.00 | 98 | 1013.9 | |
| 20260905025025 | 60 | 0.0 | 0.0 | 0.00 | 0.00 | 0.00 | 98 | 1014.0 | |
| 20260905024021 | 60 | 0.0 | 0.0 | 0.00 | 0.00 | 0.00 | 98 | 1013.9 |